Location: Newark
(42.8481°N, 0.4872°E)
Time: 06:15:17
(UTC+00:00)

Explorer 7 - Pass Details

Date: 02 November 2020
Orbit: 484 x 678 km, 50.3° (Epoch: 30 November)

Event Time Altitude Azimuth Distance (km) Brightness Sun altitude
Rises 17:33:24 0° 299° (WNW) 2,585 11.1 -8.7°
Reaches altitude 10° 17:35:33 10° 297° (WNW) 1,718 10.2 -9.1°
Maximum altitude 17:39:25 68° 215° (SW) 564 7.0 -9.8°
Drops below altitude 10° 17:43:29 10° 131° (SE) 1,806 9.1 -10.5°
Enters shadow 17:44:57 - 130° (SE) 2,398 9.7 -10.8°
